Satellite-Ground Cal/Val Site Overpasses Predictions

Prediction of Satellite NPP Overpassing Cal/Val Site: Antarctic Dome C

Ground Cal/Val Site Location: Latitude: -75.10, Longitude: 123.35; Satellite-Ground Site NADIR distance within 100 km.

Table of predicted overpasses for the next 14.0 days since TLE Epoch: 7/28/2014
Interval Starting Time Ending Time Minimum Distance Time Minimum Distance (km)
1 07/29/2014 07:39:09 07/29/2014 07:39:38 07/29/2014 07:39:24 5.52
2 08/01/2014 15:02:42 08/01/2014 15:03:10 08/01/2014 15:02:56 29.72
3 08/02/2014 14:43:59 08/02/2014 14:44:18 08/02/2014 14:44:08 77.53
4 08/03/2014 07:45:35 08/03/2014 07:46:03 08/03/2014 07:45:49 30.87
5 08/04/2014 07:26:51 08/04/2014 07:27:09 08/04/2014 07:27:00 79.10
6 08/06/2014 15:09:10 08/06/2014 15:09:31 08/06/2014 15:09:21 66.73
7 08/07/2014 14:50:20 08/07/2014 14:50:46 08/07/2014 14:50:33 42.54
8 08/08/2014 07:52:01 08/08/2014 07:52:23 08/08/2014 07:52:12 65.96


NCC Satellite Cal/Val Overpasses Prediction Service
